TimeEST,TemperatureF,Dew PointF,Humidity,Sea Level PressureIn,VisibilityMPH,Wind Direction,Wind SpeedMPH,Gust SpeedMPH,PrecipitationIn,Events,Conditions,WindDirDegrees,DateUTC
12:53 AM,39.0,36.0,89,30.19,3.0,Calm,Calm,-,N/A,,Clear,0,2012-11-22 05:53:00
1:53 AM,39.0,36.0,89,30.19,3.0,South,3.5,-,N/A,,Clear,180,2012-11-22 06:53:00
2:46 AM,37.4,33.8,87,30.19,2.5,South,3.5,-,N/A,,Clear,170,2012-11-22 07:46:00
2:53 AM,36.0,33.1,89,30.19,2.5,South,3.5,-,N/A,,Clear,180,2012-11-22 07:53:00
3:40 AM,39.2,35.6,87,30.18,3.0,South,4.6,-,N/A,,Clear,190,2012-11-22 08:40:00
3:53 AM,39.0,36.0,89,30.17,3.0,South,3.5,-,N/A,,Clear,190,2012-11-22 08:53:00
4:53 AM,39.9,36.0,86,30.17,3.0,South,6.9,-,N/A,,Clear,190,2012-11-22 09:53:00
5:53 AM,41.0,37.0,86,30.18,3.0,South,5.8,-,N/A,,Clear,190,2012-11-22 10:53:00
6:53 AM,42.1,37.0,82,30.17,3.0,South,5.8,-,N/A,,Haze,180,2012-11-22 11:53:00
7:40 AM,41.0,37.4,87,30.16,2.0,SSW,6.9,-,N/A,,Clear,200,2012-11-22 12:40:00
7:53 AM,41.0,37.0,86,30.17,2.0,South,5.8,-,N/A,,Clear,190,2012-11-22 12:53:00
8:42 AM,44.6,39.2,81,30.16,3.0,SSW,8.1,-,N/A,,Haze,200,2012-11-22 13:42:00
8:53 AM,46.0,39.0,76,30.17,3.0,South,8.1,-,N/A,,Haze,190,2012-11-22 13:53:00
9:53 AM,51.1,41.0,68,30.16,5.0,SSW,10.4,-,N/A,,Haze,200,2012-11-22 14:53:00
10:53 AM,55.9,41.0,57,30.14,8.0,SSW,11.5,21.9,N/A,,Clear,200,2012-11-22 15:53:00
11:53 AM,57.9,39.9,51,30.11,10.0,SW,17.3,25.3,N/A,,Clear,220,2012-11-22 16:53:00
12:53 PM,61.0,39.9,46,30.08,10.0,SSW,15.0,25.3,N/A,,Clear,200,2012-11-22 17:53:00
1:53 PM,61.0,39.9,46,30.06,10.0,South,17.3,24.2,N/A,,Clear,190,2012-11-22 18:53:00
2:53 PM,61.0,39.9,46,30.03,10.0,South,13.8,20.7,N/A,,Clear,190,2012-11-22 19:53:00
3:53 PM,60.1,39.9,47,30.03,10.0,SSW,15.0,20.7,N/A,,Clear,210,2012-11-22 20:53:00
4:53 PM,59.0,39.9,49,30.01,10.0,South,11.5,-,N/A,,Overcast,190,2012-11-22 21:53:00
5:53 PM,57.9,39.9,51,29.99,10.0,South,11.5,-,N/A,,Mostly Cloudy,190,2012-11-22 22:53:00
6:53 PM,57.0,39.9,53,29.99,10.0,SSW,11.5,18.4,N/A,,Clear,200,2012-11-22 23:53:00
7:53 PM,55.9,39.0,53,29.98,10.0,SSW,9.2,18.4,N/A,,Clear,200,2012-11-23 00:53:00
8:53 PM,55.9,39.0,53,29.96,10.0,SSW,11.5,20.7,N/A,,Clear,200,2012-11-23 01:53:00
9:53 PM,55.0,37.9,53,29.93,10.0,SSW,12.7,24.2,N/A,,Clear,200,2012-11-23 02:53:00
10:53 PM,55.9,37.9,51,29.94,10.0,SSW,15.0,24.2,N/A,,Overcast,210,2012-11-23 03:53:00
11:53 PM,55.9,37.9,51,29.91,10.0,SW,17.3,25.3,N/A,,Overcast,220,2012-11-23 04:53:00